Preview of NWS' New Version of Forecast
This preview is not operational and should not be used for support decisions.

Regional Weather Roundup (RWR)

Issued by National Weather Service (NWS)

                            
000
ASUS43 KDTX 201110
RWRMI 
MICHIGAN HOURLY REGIONAL WEATHER ROUNDUP
NATIONAL WEATHER SERVICE DETROIT/PONTIAC MI
700 AM EDT THU JUN 20 2019

NOTE: "FAIR" INDICATES FEW OR NO CLOUDS BELOW 12,000 FEET WITH NO
SIGNIFICANT WEATHER AND/OR OBSTRUCTION TO VISIBILITY.

MIZ047>049-052>055-059>063-066>070-074>076-081>083-201200-
SOUTHEAST LOWER MICHIGAN
  
CITY           SKY/WX    TMP DP  RH WIND       PRES   REMARKS
ADRIAN         LGT RAIN  63  61  93 NE10      29.59S FOG              
ALMA           LGT RAIN  60  58  94 N7        29.66S                  
ANN ARBOR      CLOUDY    63  62  97 NE5       29.60R FOG              
BAD AXE        LGT RAIN  58  56  95 NE9       29.66S                  
CARO           LGT RAIN  58  57  97 N3        29.65S                  
DETROIT CITY   CLOUDY    63  59  87 N7        29.60S                  
DETROIT        LGT RAIN  64  60  87 NE6       29.60S FOG              
FLINT          LGT RAIN  60  57  89 NE7       29.64R                  
GROSSE ILE     CLOUDY    63  61  93 NE6       29.58S FOG              
HILLSDALE      RAIN      62  60  96 NE8       29.58F                  
HOWELL         DRIZZLE   61  58  91 N5        29.61F                  

CITY           SKY/WX    TMP DP  RH WIND       PRES   REMARKS
JACKSON        LGT RAIN  62  62 100 N8        29.60S FOG              
LAMBERTVILLE   RAIN      65  64  97 NE3       29.58S                  
LANSING        LGT RAIN  59  58  96 NE10      29.62S                  
LAPEER         LGT RAIN  60  59  99 N5        29.63S                  
MASON          RAIN      61  59  95 NE8       29.62S                  
MONROE         RAIN      64  63  98 NE3       29.58S                  
MT. CLEMENS    CLOUDY    62  62 100 N6        29.59S                  
PONTIAC        LGT RAIN  62  61  96 NE12      29.59F FOG              
PORT HOPE        N/A     54  54 100 N9        29.66R                  
PORT HURON     LGT RAIN  59  55  88 N6        29.61S                  
TRI CITIES     LGT RAIN  59  59 100 NE13      29.67S FOG              
MIDLAND        DRIZZLE   58  56  94 NE5       29.67S                  
TROY           CLOUDY    62  59  88 NE10      29.62S                  
SAGINAW HB     RAIN      61  59  94 N12       29.65F                  
$$
MIZ043>046-050>051-056>058-064>065-071>073-077>080-201200-
SOUTHWEST LOWER MICHIGAN
  
CITY           SKY/WX    TMP DP  RH WIND       PRES   REMARKS
BATTLE CREEK   RAIN      63  62  97 NE9G21    29.59R                  
BENTON HARBOR  CLOUDY    64  61  90 E8G17     29.55S                  
BIG RAPIDS     RAIN      59  58  96 E7        29.66F                  
COLDWATER      LGT RAIN  62  62 100 E9        29.57S                  
FREMONT        DRIZZLE   60  59  97 E9        29.65S                  
HOLLAND        LGT RAIN  62  32  32 NE8       29.61S                  
GRAND RAPIDS   LGT RAIN  60  58  92 NE13      29.62S FOG              
IONIA          RAIN      59  58  95 NE15      29.62S                  
KALAMAZOO      LGT RAIN  64  61  90 NE7       29.57S                  
LUDINGTON      CLOUDY    58  57  96 NE5       29.67S                  
MARSHALL       RAIN      63  63 100 NE6       29.59R                  
MOUNT PLEASANT LGT RAIN  58  58  99 NE5       29.67S                  
MUSKEGON       LGT RAIN  61  57  87 NE10      29.63S                  
SOUTH HAVEN    LGT RAIN  63  62  96 NE9       29.57S                  
$$
MIZ016>042-201200-
NORTHERN LOWER MICHIGAN
  
CITY           SKY/WX    TMP DP  RH WIND       PRES   REMARKS
ALPENA         FAIR      56  53  90 N8        29.72S                  
BEAVER ISLAND  FAIR      55  49  81 E5        29.76R                  
BELLAIRE       FAIR      56  52  87 CALM      29.72S                  
CADILLAC       CLOUDY    59  58  94 NE7       29.69S                  
CHARLEVOIX     FAIR      56  51  82 NE5       29.76S                  
FRANKFORT      FAIR      60  51  71 CALM      29.71R                  
GAYLORD        FAIR      53  52  96 NE8       29.73S                  
GRAYLING       FAIR      55  54  97 NE6       29.70S                  
HARBOR SPRINGS FAIR      56  52  86 E7        29.74S                  
HOUGHTON LAKE  CLOUDY    55  52  89 NE5       29.71S                  
MANISTEE       CLOUDY    58  55  90 E7        29.68S                  
OSCODA         LGT RAIN  55  55 100 NE7       29.69S                  
PELLSTON       FAIR      54  50  86 CALM      29.75S                  
ROGERS CITY    FAIR      55  51  88 CALM      29.75S                  
TRAVERSE CITY  CLOUDY    56  53  90 CALM      29.70F                  
$$
MIZ007>008-015-201200-
EASTERN UPPER MICHIGAN
  
CITY           SKY/WX    TMP DP  RH WIND       PRES   REMARKS
KINROSS        FAIR      53  47  79 N6        29.78R                  
MACKINAC ISLAN FAIR      56  48  75 NE9       29.75F                  
NEWBERRY       FAIR      50  48  92 N6        29.79R                  
S. S. MARIE    FAIR      58  46  64 VRB7      29.78R                  
MUNISING         N/A     44  42  93 S3        29.81R                  
$$
MIZ004>006-011>014-085-201200-
CENTRAL UPPER MICHIGAN
  
CITY           SKY/WX    TMP DP  RH WIND       PRES   REMARKS
MANISTIQUE     FAIR      51  48  90 N7        29.76S                  
ESCANABA       MOCLDY    53  46  77 VRB6      29.78R                  
MENOMINEE      MOCLDY    53  47  79 N5        29.77R                  
SAWYER-GWINN   CLEAR     50  45  81 NE10      29.81R                  
$$
MIZ001>003-009>011-084-201200-
WESTERN UPPER MICHIGAN
  
CITY           SKY/WX    TMP DP  RH WIND       PRES   REMARKS
IRON MOUNTAIN  MOCLDY    50  43  77 W5        29.79R                  
HOUGHTON       FAIR      46  41  82 CALM      29.83R                  
COPPER HARBOR    N/A     47  45  93 W5        29.83R                  
IRONWOOD       FAIR      43  41  93 CALM      29.86R                  
$$

ABBREVIATIONS USED IN REMARKS
   TC - TEMPERATURE IN CELSIUS
  WCI - WIND CHILL INDEX
   HX - HEAT INDEX
  VSB - VISIBILITY